Skip Page Navigation
NASA JPL Caltech
NASA Logo - Jet Propulsion Laboratory + View the NASA Portal
+ Center for Near-Earth Object Studies
JPL Home Earth Solar System Stars & Galaxies Technology
JPL Solar System Dynamics
BODIES ORBITS EPHEMERIDES TOOLS PHYSICAL DATA DISCOVERY FAQ SITE MAP
IMPORTANT: The SSD Announcement email list is now available. Major changes are coming in the near future, including possible hostname and/or URL changes. To be notified of such changes, subscribe to this email list.

Please visit this page for more details.


JPL Small-Body Database Browser
Search: [ help ]  
2713 Luxembourg (1938 EA)
Classification: Main-belt Asteroid          SPK-ID: 2002713
Ephemeris | Orbit Diagram | Orbital Elements | Mission Design | Physical Parameters | Discovery Circumstances | Close-Approach Data ]

[ show orbit diagram ]
Orbital Elements at Epoch 2459000.5 (2020-May-31.0) TDB
Reference: JPL 36 (heliocentric ecliptic J2000)
 Element Value Uncertainty (1-sigma)   Units 
e .02290652147956524 3.1674e-08  
a 2.854335501716224 1.2132e-08 au
q 2.788952604236275 9.113e-08 au
i 1.349900955986684 3.8704e-06 deg
node 339.6205749840247 0.00014967 deg
peri 299.6192954623309 0.00017499 deg
M 251.5904524414906 9.2134e-05 deg
tp 2459530.921338176619
(2021-Nov-12.42133818)
0.00045122 TDB
period 1761.391741262685
4.82
1.123e-05
3.075e-08
d
yr
n .2043838355583112 1.3031e-09 deg/d
Q 2.919718399196172 1.241e-08 au
  Orbit Determination Parameters
   # obs. used (total)      3000  
   data-arc span      29935 days (81.96 yr)  
   first obs. used      1938-02-19  
   last obs. used      2020-02-04  
   planetary ephem.      DE431  
   SB-pert. ephem.      SB431-N16  
   condition code      0  
   norm. resid. RMS      .44552  
   source      ORB  
   producer      Otto Matic  
   solution date      2020-Feb-22 16:28:57  

Additional Information
 Earth MOID = 1.77282 au 
 Jupiter MOID = 2.09379 au 
 T_jup = 3.303 
[ show covariance matrix ]

Ephemeris | Orbit Diagram | Orbital Elements | Mission Design | Physical Parameters | Discovery Circumstances | Close-Approach Data ]

Physical Parameter Table
Parameter Symbol Value Units Sigma Reference Notes
absolute magnitude H 11.4   n/a MPO337271  
diameter diameter 15.093 km 0.125 urn:nasa:pds:neowise_diameters_albedos::2.0[mainbelt] (http://adsabs.harvard.edu/abs/2014ApJ...791..121M)  
rotation period rot_per 3.579 h n/a LCDB (Rev. 2019-August); Warner et al., 2009 Published Reference List:
[Behrend, R. (2006) Observatoire de Geneve web site, http://obswww.unige.ch/~behrend/page_cou.html]
[Mailhot, E.A.; Midkiff, A.H. (2014) Minor Planet Bull. 41, 157.]
[Waszczak, A.; Chang, C.-K.; Ofeck, E.O.; Laher, F.; et al. (2015) Astron. J. 150, A75.]
[Chang, C.-K.; Lin, H.-W.; Ip, W.-H.; Prince, T.A.; et al. (2016) Astrophys. J. Sup. Ser. 227, A20.]
[Hanus, J.; Durech, J.; Oszkiewicz, D.A.; Behrend, R.; et al. (2016) Astron. Astrophys. 586, A108.]
geometric albedo albedo 0.195   0.038 urn:nasa:pds:neowise_diameters_albedos::2.0[mainbelt] (http://adsabs.harvard.edu/abs/2014ApJ...791..121M)  

2713 Luxembourg (1938 EA)          Discovered 1938-Feb-19 by Delporte, E. at Uccle
Reference: DISCOVERY.DBLast Updated: 2003-08-29

[ show close-approach data ]
Alternate Designations
 1938 EA = 1935 QZ = 1958 HE = 1969 RX1 = 1969 TF8 = 1977 EA1 = 1977 FB3 = 1979 SS9 = 1981 BL = 1982 HG2 
Ephemeris | Orbit Diagram | Orbital Elements | Mission Design | Physical Parameters | Discovery Circumstances | Close-Approach Data ]
ABOUT SSD CREDITS/AWARDS PRIVACY/COPYRIGHT GLOSSARY LINKS
FirstGov 2020-Feb-25 13:29 UT
(server date/time)  
NASA Home Page
Site Manager:   Ryan S. Park
Webmaster  Alan B. Chamberlin